MPEC 2007-F58 : 2007 FR3

The following Minor Planet Electronic Circular may be linked-to from your own Web pages, but must not otherwise be redistributed electronically.


Read MPEC 2007-F57 Read MPEC 2007-F59


M.P.E.C. 2007-F58                                Issued 2007 Mar. 21, 16:27 UT

     The Minor Planet Electronic Circulars contain information on unusual
         minor planets and routine data on comets.  They are published
   on behalf of Commission 20 of the International Astronomical Union by the
          Minor Planet Center, Smithsonian Astrophysical Observatory,
                          Cambridge, MA 02138, U.S.A.

             Prepared using the Tamkin Foundation Computer Network

                              MPC@CFA.HARVARD.EDU
          URL http://cfa-www.harvard.edu/iau/mpc.html  ISSN 1523-6714

                                   2007 FR3

Observations:
     K07F03R* C2007 03 20.28779 11 16 18.51 +01 16 04.4          20.8 V EF058G96
     K07F03R  C2007 03 20.29499 11 16 21.90 +01 15 49.8          20.9 V EF058G96
     K07F03R  C2007 03 20.30235 11 16 25.35 +01 15 35.1          20.2 V EF058G96
     K07F03R  C2007 03 20.48379 11 17 57.99 +01 09 16.5                 EF058G96
     K07F03R  C2007 03 20.48443 11 17 58.49 +01 09 15.5                 EF058G96
     K07F03R  C2007 03 20.48508 11 17 58.99 +01 09 12.5          21.4 V EF058G96
     K07F03R  C2007 03 20.48573 11 17 59.29 +01 09 11.4                 EF058G96
     K07F03R  C2007 03 21.26782 11 27 18.25 +00 36 51.2          20.3 V EF058G96
     K07F03R  C2007 03 21.26889 11 27 19.04 +00 36 48.8          20.9 V EF058G96
     K07F03R  C2007 03 21.26965 11 27 19.58 +00 36 46.4          20.4 V EF058G96

Observer details:
G96 Mt. Lemmon Survey.  Observer A. R. Gibbs.  Measurers E. C. Beshore,
    E. J. Christensen, G. J. Garradd, A. R. Gibbs, A. D. Grauer, R. E. Hill,
    R. A. Kowalski, S. M. Larson, R. H. McNaught.  1.5-m reflector + CCD.

Orbital elements:
2007 FR3                                                 Earth MOID = 0.0017 AU
Epoch 2007 Apr. 10.0 TT = JDT 2454200.5                 MPC
M 353.50880              (2000.0)            P               Q
n   0.39347949     Peri.   43.42930     -0.69495283     +0.71905424
a   1.8443980      Node   182.54821     -0.66717359     -0.64545783
e   0.5010628      Incl.    1.61184     -0.26817898     -0.25757561
P   2.50           H   27.5           G   0.15           U   9
Residuals in seconds of arc
070320 G96  0.1+  0.1+    070320 G96  1.0-  1.0+    070321 G96  0.2+  0.3+
070320 G96  0.1+  0.1-    070320 G96  1.0+  0.6-    070321 G96  0.3+  0.1+
070320 G96  0.2-  0.0     070320 G96  0.0   0.3-
070320 G96 (3.0-  0.6+)   070321 G96  0.5-  0.4-

Ephemeris:
2007 FR3                 a,e,i = 1.84, 0.50, 2                   q = 0.9202
Date    TT    R. A. (2000) Decl.     Delta      r     Elong.  Phase     V
2007 03 21    11 23.85   +00 51.6    0.0306   1.026   171.0     8.7    20.6
2007 03 22    11 38.72   -00 01.1    0.0249   1.021   173.9     6.0    20.0
2007 03 23    12 02.35   -01 24.7    0.0193   1.016   178.7     1.3    19.1
2007 03 24    12 44.16   -03 49.6    0.0142   1.011   171.2     8.7    18.9
2007 03 25    14 07.02   -08 07.5    0.0100   1.006   151.1    28.6    18.8
2007 03 26    16 35.64   -12 49.5    0.00848  1.001   115.3    64.2    19.4
2007 03 27    18 54.48   -12 36.4    0.0108   0.996    82.5    96.9    21.1
2007 03 28    20 07.90   -10 39.0    0.0152   0.992    65.4   113.8    22.8
2007 03 29    20 45.63   -09 12.2    0.0205   0.987    56.9   122.1    24.0
2007 03 30    21 07.51   -08 14.6    0.0261   0.983    52.4   126.4    24.9
2007 03 31    21 21.62   -07 35.0    0.0318   0.979    49.8   128.7    25.6

Kyle E. Smalley              (C) Copyright 2007 MPC           M.P.E.C. 2007-F58

Read MPEC 2007-F57 Read MPEC 2007-F59


Our Web policy. Index to the CBAT/MPC/ICQ pages.

MPC

Valid HTML 4.01!